Weather History for Chadron, NE

Change the Weather History Date:

Wednesday, January 1, 2014

  Actual Average Record
Temperature  
Mean Temperature 22 °F 24 °F  
Max Temperature 29 °F 38 °F 63 °F (1943)
Min Temperature 15 °F 10 °F -28 °F (1924)
Degree Days  
Heating Degree Days 43 41  
Month to date heating degree days 43 41  
Since 1 July heating degree days 3106 2983  
Cooling Degree Days 0 0  
Month to date cooling degree days 0 0  
Year to date cooling degree days 0 0  
Moisture  
Dew Point 18 °F    
Average Humidity 84    
Maximum Humidity 92    
Minimum Humidity 75    
Precipitation  
Precipitation 0.05 in 0.01 in 0.88 in (1984)
Month to date precipitation 0.05 0.01  
Year to date precipitation 0.05 0.01  
Sea Level Pressure  
Sea Level Pressure 30.24 in    
Wind  
Wind Speed 3 mph (NE)    
Max Wind Speed 9 mph    
Max Gust Speed 10 mph    
Visibility 6 miles    
Events Snow    
T = Trace of Precipitation, MM = Missing Value Source: NWS Daily Summary

Daily Weather History Graph

Daily Weather History Graph

Search for Another Location

Airport:

Trip Planner

Search our weather history database for the weather conditions in past years. The results will help you decide how hot, cold, wet, or windy it might be!

Date:

Astronomy

Jan. 01, 2014 Rise Set
Actual Time 7:23 AM MST 4:29 PM MST
Civil Twilight 6:51 AM MST 5:01 PM MST
Nautical Twilight 6:15 AM MST 5:36 PM MST
Astronomical Twilight 5:41 AM MST 6:11 PM MST
Moon 7:13 AM MST (1/1) 5:18 PM MST (1/1)
Length of Visible Light 10h 10m
Length of Day
9h 05m
New Moon, 0% of the Moon is Illuminated
Jan 1
New Moon
Jan 7
First Quarter
Jan 15
Full
Jan 23
Last Quarter
Jan 30
New

Hourly Weather History & Observations

Time (MST) Temp. Windchill Dew Point Humidity Pressure Visibility Wind Dir Wind Speed Gust Speed Precip Events Conditions
12:29 AM 21.2 °F 12.6 °F 17.6 °F 86% 30.00 in 1.2 mi North 6.9 mph - 0.00 in Snow Light Snow
12:41 AM 21.2 °F 14.9 °F 17.6 °F 86% 30.00 in 1.5 mi North 4.6 mph - 0.00 in Snow Light Snow
12:53 AM 21.0 °F 14.6 °F 19.0 °F 92% 30.10 in 1.8 mi North 4.6 mph - 0.00 in Snow Light Snow
1:00 AM 21.2 °F 13.6 °F 19.4 °F 93% 30.00 in 2.0 mi North 5.8 mph - 0.00 in Snow Light Snow
1:13 AM 21.2 °F 12.6 °F 17.6 °F 86% 30.00 in 4.0 mi NNE 6.9 mph - 0.00 in Snow Light Snow
1:43 AM 19.4 °F 11.5 °F 17.6 °F 93% 30.02 in 8.0 mi NNE 5.8 mph - 0.00 in   Overcast
1:53 AM 19.9 °F 14.9 °F 17.1 °F 89% 30.13 in 9.0 mi North 3.5 mph - 0.00 in   Overcast
2:49 AM 19.4 °F 14.3 °F 17.6 °F 93% 30.05 in 8.0 mi NNE 3.5 mph - N/A   Overcast
2:53 AM 19.9 °F 13.4 °F 17.1 °F 89% 30.17 in 8.0 mi NNE 4.6 mph - N/A   Overcast
3:53 AM 19.9 °F 14.9 °F 17.1 °F 89% 30.19 in 7.0 mi ENE 3.5 mph - N/A   Overcast
4:50 AM 19.4 °F 14.3 °F 17.6 °F 93% 30.08 in 3.0 mi NE 3.5 mph - N/A   Overcast
4:53 AM 19.9 °F 14.9 °F 18.0 °F 92% 30.22 in 3.0 mi NE 3.5 mph - N/A   Overcast
5:09 AM 19.4 °F 12.8 °F 17.6 °F 93% 30.09 in 2.0 mi East 4.6 mph - N/A   Overcast
5:22 AM 19.4 °F 12.8 °F 17.6 °F 93% 30.09 in 1.2 mi East 4.6 mph - N/A   Overcast
5:53 AM 19.0 °F 10.0 °F 17.1 °F 92% 30.27 in 1.8 mi ENE 6.9 mph - N/A   Overcast
6:12 AM 19.4 °F 10.4 °F 17.6 °F 93% 30.14 in 2.0 mi North 6.9 mph - N/A   Overcast
6:42 AM 19.4 °F 12.8 °F 17.6 °F 93% 30.15 in 4.0 mi NE 4.6 mph - N/A   Overcast
6:53 AM 19.0 °F 12.3 °F 18.0 °F 96% 30.30 in 4.0 mi NE 4.6 mph - N/A   Overcast
7:40 AM 19.4 °F 12.8 °F 17.6 °F 93% 30.16 in 2.0 mi East 4.6 mph - N/A   Overcast
7:53 AM 19.0 °F 12.3 °F 17.1 °F 92% 30.33 in 2.5 mi ENE 4.6 mph - N/A   Overcast
8:06 AM 19.4 °F 11.5 °F 17.6 °F 93% 30.17 in 4.0 mi East 5.8 mph - N/A   Overcast
8:20 AM 17.6 °F 9.3 °F 15.8 °F 93% 30.18 in 6.0 mi East 5.8 mph - N/A   Overcast
8:53 AM 19.0 °F 13.9 °F 17.1 °F 92% 30.38 in 6.0 mi ENE 3.5 mph - N/A   Overcast
9:53 AM 19.0 °F 12.3 °F 17.1 °F 92% 30.40 in 6.0 mi East 4.6 mph - N/A   Overcast
10:12 AM 19.4 °F 14.3 °F 17.6 °F 93% 30.24 in 1.8 mi ESE 3.5 mph - 0.00 in Snow Light Snow
10:23 AM 19.4 °F 14.3 °F 17.6 °F 93% 30.23 in 0.8 mi ESE 3.5 mph - 0.00 in Snow Light Snow
10:31 AM 19.4 °F 14.3 °F 17.6 °F 93% 30.23 in 1.5 mi SE 3.5 mph - 0.00 in Snow Light Snow
10:41 AM 19.4 °F 14.3 °F 17.6 °F 93% 30.23 in 2.0 mi ESE 3.5 mph - 0.00 in Snow Light Snow
10:53 AM 19.9 °F 13.4 °F 18.0 °F 92% 30.39 in 2.0 mi SE 4.6 mph - 0.00 in Snow Light Snow
11:02 AM 19.4 °F - 17.6 °F 93% 30.22 in 3.0 mi Calm Calm - 0.00 in Snow Light Snow
11:19 AM 21.2 °F 16.4 °F 17.6 °F 86% 30.22 in 6.0 mi East 3.5 mph - 0.00 in   Scattered Clouds
11:42 AM 21.2 °F 16.4 °F 17.6 °F 86% 30.23 in 9.0 mi NNW 3.5 mph - 0.00 in   Mostly Cloudy
11:53 AM 21.9 °F 17.2 °F 18.0 °F 85% 30.40 in 8.0 mi WNW 3.5 mph - 0.00 in   Overcast
12:53 PM 23.0 °F - 19.9 °F 88% 30.38 in 10.0 mi Calm Calm - N/A   Overcast
1:53 PM 26.1 °F - 21.0 °F 81% 30.38 in 10.0 mi Calm Calm - N/A   Overcast
2:53 PM 28.0 °F 22.8 °F 21.9 °F 78% 30.39 in 10.0 mi WSW 4.6 mph - 0.01 in   Mostly Cloudy
3:06 PM 28.4 °F - 23.0 °F 80% 30.24 in 10.0 mi Calm Calm - 0.02 in   Mostly Cloudy
3:53 PM 28.9 °F - 21.9 °F 75% 30.40 in 10.0 mi Calm Calm - 0.04 in   Scattered Clouds
4:53 PM 21.0 °F - 18.0 °F 88% 30.43 in 10.0 mi Calm Calm - N/A   Clear
5:53 PM 18.0 °F - 15.1 °F 88% 30.45 in 10.0 mi Calm Calm - N/A   Clear
6:53 PM 19.9 °F - 17.1 °F 89% 30.45 in 10.0 mi Calm Calm - N/A   Clear
7:53 PM 17.1 °F 7.6 °F 14.0 °F 88% 30.45 in 10.0 mi WSW 6.9 mph - N/A   Clear
8:53 PM 19.0 °F - 16.0 °F 88% 30.45 in 10.0 mi Calm Calm - N/A   Mostly Cloudy
9:53 PM 21.9 °F 15.7 °F 19.0 °F 89% 30.42 in 10.0 mi SW 4.6 mph - N/A   Overcast
10:53 PM 16.0 °F 5.3 °F 14.0 °F 92% 30.42 in 10.0 mi SW 8.1 mph - N/A   Clear
11:53 PM 18.0 °F 12.7 °F 15.1 °F 88% 30.38 in 10.0 mi SW 3.5 mph - N/A   Clear